Flight Track Log - Related Links

Times and Time Zones

All times are in EDT time to prevent confusion due to time zone crossing. See the USC108 flight status page for this flight to view local times or setup timezone preferences in your user account.

Time Position Orientation Groundspeed Altitude Reporting Facility
EDT Latitude Longitude Course Direction KTS MPH feet Rate Location/Type
Mon 10:57:53 PM 39.8058 -82.9419 230° Southwest 113 130 1,100  Level Indianapolis Center
Mon 10:58:47 PM 39.7847 -82.9750 230° Southwest 123 142 2,500 1,350 Climbing Indianapolis Center
Mon 10:59:13 PM 39.7792 -82.9839 231° Southwest 129 148 2,900 1,279 Climbing Indianapolis Center
Mon 10:59:48 PM 39.7672 -83.0136 242° Southwest 125 144 3,800 1,475 Climbing Indianapolis Center
Mon 11:00:14 PM 39.7575 -83.0308 234° Southwest 128 147 4,400 1,159 Climbing Indianapolis Center
Mon 11:01:16 PM 39.7386 -83.0728 240° Southwest 132 152 5,500 1,074 Climbing Indianapolis Center
Mon 11:01:49 PM 39.7281 -83.0958 239° Southwest 138 159 6,100 590 Climbing Indianapolis Center
Mon 11:02:17 PM 39.7169 -83.1156 234° Southwest 136 157 6,100  Level Indianapolis Center
Mon 11:02:50 PM 39.6997 -83.1442 232° Southwest 180 207 6,100  Level Indianapolis Center
Mon 11:03:18 PM 39.6847 -83.1664 229° Southwest 170 196 6,100 100 Level Indianapolis Center
Mon 11:03:50 PM 39.6683 -83.2028 240° Southwest 195 224 6,200 98 Climbing Indianapolis Center
Mon 11:04:19 PM 39.6556 -83.2286 237° Southwest 192 221 6,200 -90 Level Indianapolis Center
Mon 11:04:57 PM 39.6383 -83.2722 243° Southwest 200 230 6,100 -97 Descending Indianapolis Center
Mon 11:05:21 PM 39.6256 -83.2903 227° Southwest 198 228 6,100  Level Indianapolis Center
Mon 11:05:52 PM 39.6036 -83.3197 226° Southwest 196 226 6,100  Level Indianapolis Center
Mon 11:06:22 PM 39.5892 -83.3458 234° Southwest 200 230 6,100  Level Indianapolis Center
Mon 11:06:52 PM 39.5719 -83.3808 237° Southwest 201 231 6,100  Level Indianapolis Center
Mon 11:07:23 PM 39.5594 -83.4089 240° Southwest 202 232 6,100  Level Indianapolis Center
Mon 11:07:53 PM 39.5483 -83.4483 250° West 203 234 6,100  Level Indianapolis Center
Mon 11:08:24 PM 39.5394 -83.4786 249° West 203 234 6,100  Level Indianapolis Center
Mon 11:08:54 PM 39.5289 -83.5136 249° West 202 232 6,100  Level Indianapolis Center
Mon 11:09:26 PM 39.5164 -83.5450 243° Southwest 202 232 6,100  Level Indianapolis Center
Mon 11:09:48 PM 39.5061 -83.5675 239° Southwest 188 216 6,100  Level Indianapolis Center
Mon 11:10:27 PM 39.4872 -83.6039 236° Southwest 194 223 6,100  Level Indianapolis Center
Mon 11:11:28 PM 39.4592 -83.6653 239° Southwest 195 224 6,100 -49 Level Indianapolis Center
Mon 11:12:29 PM 39.4311 -83.7258 239° Southwest 195 224 6,000 -49 Descending Indianapolis Center
Mon 11:13:30 PM 39.3994 -83.7833 235° Southwest 193 222 6,000  Level Indianapolis Center
Mon 11:14:32 PM 39.3614 -83.8342 226° Southwest 194 223 6,000  Level Indianapolis Center
Mon 11:15:33 PM 39.3242 -83.8872 228° Southwest 196 226 6,000  Level Indianapolis Center
Mon 11:16:34 PM 39.2914 -83.9450 234° Southwest 197 227 6,000  Level Indianapolis Center
Mon 11:17:35 PM 39.2592 -84.0053 235° Southwest 200 230 6,000  Level Indianapolis Center
Mon 11:18:36 PM 39.2261 -84.0647 234° Southwest 201 231 6,000  Level Indianapolis Center
Mon 11:19:38 PM 39.1961 -84.1272 238° Southwest 202 232 6,000  Level Indianapolis Center
Mon 11:20:39 PM 39.1711 -84.1961 245° Southwest 204 235 6,000  Level Indianapolis Center
Mon 11:21:40 PM 39.1475 -84.2647 246° West 206 237 6,000  Level Indianapolis Center
Mon 11:22:41 PM 39.1186 -84.3292 240° Southwest 207 238 6,000  Level Indianapolis Center
Mon 11:23:42 PM 39.0819 -84.4006 237° Southwest 204 235 6,000  Level Indianapolis Center
Mon 11:24:17 PM 39.0667 -84.4333 239° Southwest 203 234 6,000  Level Cincinnati TRACON
Mon 11:25:17 PM 39.0333 -84.4833 229° Southwest 199 229 6,000  Level Cincinnati TRACON
Mon 11:26:23 PM 38.9833 -84.5500 226° Southwest 197 227 6,000  Level Cincinnati TRACON
Mon 11:27:29 PM 38.9500 -84.6167 237° Southwest 197 227 6,000  Level Cincinnati TRACON
Mon 11:28:23 PM 38.9333 -84.6667 247° West 199 229 6,000  Level Cincinnati TRACON
Mon 11:29:23 PM 38.9000 -84.7167 229° Southwest 196 226 6,000  Level Cincinnati TRACON
Mon 11:30:23 PM 38.8667 -84.7833 237° Southwest 198 228 6,000  Level Cincinnati TRACON
Mon 11:30:50 PM 38.8586 -84.8086 248° West 197 227 6,000  Level Indianapolis Center
Mon 11:31:51 PM 38.8308 -84.8692 240° Southwest 198 228 6,000  Level Indianapolis Center
Mon 11:32:52 PM 38.8022 -84.9319 240° Southwest 201 231 6,000  Level Indianapolis Center
Mon 11:33:53 PM 38.7736 -84.9925 239° Southwest 200 230 6,000  Level Indianapolis Center
Mon 11:34:54 PM 38.7411 -85.0503 234° Southwest 201 231 6,000  Level Indianapolis Center
Mon 11:35:55 PM 38.7086 -85.1106 235° Southwest 204 235 6,000  Level Indianapolis Center
Mon 11:36:56 PM 38.6758 -85.1686 234° Southwest 203 234 6,000  Level Indianapolis Center
Mon 11:37:57 PM 38.6428 -85.2297 235° Southwest 207 238 6,000 -98 Level Indianapolis Center
Mon 11:38:58 PM 38.6014 -85.2892 228° Southwest 204 235 5,800 -446 Descending Indianapolis Center
Mon 11:39:58 PM 38.5678 -85.3519 236° Southwest 210 242 5,100 -744 Descending Indianapolis Center
Mon 11:40:59 PM 38.5344 -85.4139 235° Southwest 213 245 4,300 -590 Descending Indianapolis Center
Mon 11:42:00 PM 38.4950 -85.4847 235° Southwest 213 245 3,900 -393 Descending Indianapolis Center

Login

Don't have an account? Register now (free) for customized features, flight alerts, and more!